This demonstration page uses our WeatherBlox Daily Observations layout. Learn more.

Left ArrowRight Arrow

39.08367, -84.50855

Hourly Observations for April 8, 2015

Temp ( °F °C ) Dew Point ( °F °C ) Humidity (%) Winds ( mph kmh ) Pressure ( in mb ) Visibility ( mi km ) Precip ( " mm )
12:53 am 00:53 Mostly Cloudy with Fog 52 11.1 52 11.1 100 100 Calm 30.05 1018 0.25 0.402335 0 0
1:35 am 01:35 Mostly Cloudy with Fog 52 11.1 52 11.1 100 100 Calm 30.06 1018 0.5 0.80467 0 0
1:45 am 01:45 Mostly Cloudy with Fog 51 10.6 51 10.6 100 100 Calm 30.06 1018 0.25 0.402335 0 0
1:53 am 01:53 Mostly Cloudy with Fog 52 11.1 52 11.1 100 100 Calm 30.06 1018 0.25 0.402335 0 0
2:26 am 02:26 Mostly Cloudy with Fog 48 9 48 9 100 100 Calm 30.06 1018 0.5 0.80467 0 0
2:53 am 02:53 Mostly Cloudy with Fog 51 10.6 51 10.6 100 100 Calm 30.04 1017 0.5 0.80467 0 0
2:59 am 02:59 Mostly Clear with Fog 51 10.6 51 10.6 100 100 Calm 30.06 1018 0.25 0.402335 0 0
3:22 am 03:22 Partly Cloudy with Fog 50 10 50 10 100 100 Calm 30.06 1018 0.5 0.80467 0 0
3:53 am 03:53 Cloudy with Mist and Fog 50 10 50 10 100 100 Calm 30.05 1018 1 1.60934 0 0
4:04 am 04:04 Cloudy with Mist and Fog 51 10.6 51 10.6 100 100 Calm 30.06 1018 2.5 4.02335 0 0
4:12 am 04:12 Cloudy with Mist and Fog 52 11 52 11 100 100 Calm 30.06 1018 4 6.43736 0 0
4:53 am 04:53 Cloudy 52 11.1 52 11.1 100 100 Calm 30.04 1017 8 12.87472 0 0
5:01 am 05:01 Mostly Cloudy 52 11.1 52 11.1 100 100 Calm 30.03 1017 7 11.26538 0 0
5:10 am 05:10 Partly Cloudy with Mist and Fog 52 11 52 11 100 100 Calm 30.03 1017 1.75 2.816345 0 0
5:28 am 05:28 Clear with Mist and Fog 52 11 52 11 100 100 W 3 6 30.03 1017 3 4.82802 0 0
5:53 am 05:53 Clear 51 10.6 51 10.6 100 100 WSW 5 7 30.01 1016 7 11.26538 0 0
6:53 am 06:53 Mostly Clear 51 10.6 51 10.6 100 100 SW 5 7 30.01 1016 10 16.0934 0 0
7:38 am 07:38 Cloudy with Mist and Fog 54 12 54 12 100 100 W 5 7 30 1016 5 8.0467 0 0
7:53 am 07:53 Cloudy with Mist and Fog 54 12.2 54 12.2 100 100 Calm 30.01 1016 5 8.0467 0 0
8:37 am 08:37 Cloudy with Mist and Fog 57 13.9 57 13.9 100 100 Calm 30 1016 6 9.65604 0 0
8:48 am 08:48 Cloudy 57 14 57 14 100 100 WSW 3 6 30.03 1017 7 11.26538 0 0
8:53 am 08:53 Cloudy 57 13.9 57 13.9 100 100 SW 3 6 30.01 1016 7 11.26538 0 0
9:53 am 09:53 Cloudy 60 15.6 59 15 96 96 Calm 30.01 1016 9 14.48406 0 0
10:53 am 10:53 Cloudy with Heavy Thunderstorms 60 15.6 60 15.6 100 100 NNW 13 20 30.09 1019 8 12.87472 0 0.0254
11:39 am 11:39 Cloudy with Light Thunderstorms 55 12.8 55 12.8 100 100 S 9 15 30.06 1018 7 11.26538 0.48 12.192
11:53 am 11:53 Mostly Cloudy with Light Thunderstorms 55 12.8 55 12.8 100 100 SSE 3 6 30.03 1017 10 16.0934 0.48 12.192
12:00 pm 12:00 Partly Cloudy with Nearby Thunderstorms 55 12.8 55 12.8 100 100 S 3 6 30.03 1017 10 16.0934 0 0.0254
12:13 pm 12:13 Partly Cloudy with Thunderstorms 55 12.8 55 12.8 100 100 S 10 17 30.06 1018 10 16.0934 0 0.0254
12:28 pm 12:28 Mostly Cloudy 56 13.3 56 13.3 100 100 S 9 15 30.06 1018 10 16.0934 0 0.0254
12:53 pm 12:53 Cloudy 59 15 59 15 100 100 S 9 15 30.04 1017 10 16.0934 0 0.0254
1:53 pm 13:53 Cloudy 61 16.1 61 16.1 100 100 VRB 5 7 30.03 1017 10 16.0934 0 0
2:53 pm 14:53 Mostly Cloudy 64 17.8 59 15 84 84 SSW 3 6 30.01 1016 10 16.0934 0 0
3:53 pm 15:53 Cloudy 65 18.3 60 15.6 84 84 SSW 6 9 29.97 1015 10 16.0934 0 0
4:53 pm 16:53 Mostly Sunny 69 20.6 61 16.1 76 76 Calm 29.93 1014 10 16.0934 0 0
5:53 pm 17:53 Sunny 68 20 63 17.2 84 84 Calm 29.93 1014 10 16.0934 0 0
6:53 pm 18:53 Cloudy with Light Rain 66 18.9 62 16.7 87 87 Calm 29.94 1014 10 16.0934 0.01 0.254
7:21 pm 19:21 Cloudy with Light Thunderstorms 64 17.8 63 17.2 96 96 Calm 29.91 1013 10 16.0934 0 0.0254
7:32 pm 19:32 Cloudy with Thunderstorms 64 18 63 17 94 94 NNW 5 7 29.91 1013 4 6.43736 0 0
7:43 pm 19:43 Cloudy with Heavy Thunderstorms 64 17.8 63 17.2 96 96 SSW 5 7 29.94 1014 1.75 2.816345 0.2 5.08
7:53 pm 19:53 Cloudy with Thunderstorms 65 18.3 61 16.1 87 87 SSW 17 28 29.96 1015 3 4.82802 0.32 8.128
8:14 pm 20:14 Mostly Cloudy with Light Thunderstorms 64 18 61 16 88 88 S 3 6 29.91 1013 10 16.0934 0 0
8:25 pm 20:25 Mostly Cloudy with Light Rain 63 17.2 61 16.1 93 93 NNW 3 6 29.94 1014 10 16.0934 0.01 0.254
8:40 pm 20:40 Mostly Cloudy with Nearby Thunderstorms 63 17 61 16 94 94 Calm 29.94 1014 10 16.0934 0 0
8:50 pm 20:50 Mostly Cloudy with Light Thunderstorms 61 16 61 16 100 100 VRB 6 9 29.94 1014 10 16.0934 0 0
8:53 pm 20:53 Mostly Cloudy with Light Thunderstorms 62 16.7 61 16.1 96 96 SW 8 13 29.99 1016 10 16.0934 0.01 0.254
9:53 pm 21:53 Mostly Clear 62 16.7 59 15 90 90 Calm 29.98 1015 10 16.0934 0 0.0254
10:53 pm 22:53 Clear with Mist and Fog 57 13.9 57 13.9 100 100 Calm 29.94 1014 5 8.0467 0 0
11:00 pm 23:00 Clear with Mist and Fog 57 14 57 14 100 100 S 3 6 29.91 1013 1.75 2.816345 0 0
11:10 pm 23:10 Clear with Fog 57 14 57 14 100 100 SW 3 6 29.91 1013 0.5 0.80467 0 0
11:30 pm 23:30 Clear with Mist and Fog 57 14 57 14 100 100 Calm 29.97 1015 2 3.21868 0 0
11:33 pm 23:33 Mostly Cloudy with Mist and Fog 57 13.9 57 13.9 100 100 Calm 29.97 1015 1 1.60934 0 0
11:40 pm 23:40 Mostly Cloudy with Fog 55 13 55 13 100 100 Calm 29.97 1015 0.5 0.80467 0 0
11:53 pm 23:53 Mostly Cloudy with Mist and Fog 56 13.3 56 13.3 100 100 Calm 29.97 1015 0.75 1.207005 0 0

Powered by AerisWeather